�������l�o���
Date,Time,MP-1(��Sv/h),MP-2(��Sv/h),MP-3(��Sv/h),MP-4(��Sv/h),MP-5(��Sv/h),MP-6(��Sv/h),MP-7(��Sv/h),MP-8(��Sv/h),����,����(m/s),���J
2016/11/10,00:00,1.123,1.951,1.309,2.194,1.530,0.580,1.070,0.987,�k�k��,4.2,��
2016/11/10,00:10,1.124,1.945,1.312,2.195,1.533,0.581,1.073,0.987,�k�k��,3.9,��
2016/11/10,00:20,1.122,1.946,1.311,2.193,1.533,0.582,1.071,0.987,�k�k��,4.1,��
2016/11/10,00:30,1.125,1.949,1.309,2.194,1.532,0.581,1.072,0.987,�k�k��,3.5,��
2016/11/10,00:40,1.124,1.947,1.310,2.193,1.529,0.581,1.071,0.986,�k��,2.8,��
2016/11/10,00:50,1.124,1.948,1.311,2.193,1.531,0.581,1.071,0.989,�k�k��,2.0,��
2016/11/10,01:00,1.124,1.947,1.309,2.191,1.530,0.581,1.072,0.984,�k�k��,1.5,��
2016/11/10,01:10,1.121,1.949,1.309,2.195,1.530,0.580,1.071,0.986,���k��,1.1,��
2016/11/10,01:20,1.125,1.946,1.310,2.192,1.531,0.582,1.071,0.985,�k��,1.2,��
2016/11/10,01:30,1.126,1.948,1.309,2.191,1.529,0.583,1.071,0.987,�k�k��,1.4,��
2016/11/10,01:40,1.123,1.949,1.310,2.191,1.529,0.579,1.072,0.986,�k�k��,1.5,��
2016/11/10,01:50,1.124,1.947,1.310,2.191,1.529,0.581,1.069,0.985,�k��,0.8,��
2016/11/10,02:00,1.124,1.947,1.310,2.191,1.530,0.579,1.069,0.987,�k�k��,1.9,��
2016/11/10,02:10,1.122,1.947,1.308,2.193,1.530,0.581,1.072,0.986,�k��,1.1,��
2016/11/10,02:20,1.122,1.948,1.308,2.192,1.529,0.580,1.071,0.985,�쐼,0.9,��
2016/11/10,02:30,1.125,1.947,1.309,2.191,1.530,0.580,1.072,0.986,��쐼,0.9,��
2016/11/10,02:40,1.123,1.946,1.307,2.191,1.529,0.580,1.071,0.986,��쐼,0.9,��
2016/11/10,02:50,1.124,1.947,1.308,2.192,1.528,0.582,1.069,0.987,��쓌,0.6,��
2016/11/10,03:00,1.124,1.947,1.306,2.193,1.529,0.581,1.070,0.985,��쓌,0.9,��
2016/11/10,03:10,1.123,1.946,1.310,2.193,1.529,0.582,1.072,0.986,�쐼,1.7,��
2016/11/10,03:20,1.123,1.945,1.310,2.188,1.530,0.579,1.071,0.987,��,1.2,��
2016/11/10,03:30,1.122,1.947,1.309,2.190,1.525,0.580,1.070,0.987,��,2.3,��
2016/11/10,03:40,1.124,1.947,1.310,2.188,1.528,0.580,1.070,1.044,��,3.0,��
2016/11/10,03:50,1.121,1.948,1.307,2.192,1.527,0.581,1.073,0.988,��,3.5,��
2016/11/10,04:00,1.122,1.948,1.308,2.191,1.526,0.580,1.072,0.987,�쐼,3.7,��
2016/11/10,04:10,1.125,1.947,1.307,2.187,1.528,0.580,1.070,0.986,���쐼,3.5,��
2016/11/10,04:20,1.120,1.947,1.307,2.191,1.525,0.581,1.071,0.986,��,4.5,��
2016/11/10,04:30,1.122,1.946,1.307,2.190,1.526,0.580,1.070,0.986,���k��,6.3,��
2016/11/10,04:40,1.122,1.947,1.309,2.190,1.530,0.581,1.068,0.984,���k��,6.3,��
2016/11/10,04:50,1.125,1.945,1.307,2.192,1.527,0.580,1.070,0.986,���k��,6.5,��
2016/11/10,05:00,1.122,1.946,1.307,2.191,1.525,0.582,1.070,0.987,�k��,6.7,��
2016/11/10,05:10,1.122,1.949,1.310,2.190,1.526,0.580,1.073,0.987,�k��,7.1,��
2016/11/10,05:20,1.122,1.944,1.310,2.193,1.526,0.581,1.074,0.987,�k��,6.8,��
2016/11/10,05:30,1.125,1.946,1.308,2.190,1.526,0.579,1.072,0.987,�k��,4.6,��
2016/11/10,05:40,1.122,1.943,1.309,2.191,1.526,0.581,1.072,0.987,�k��,2.0,��
2016/11/10,05:50,1.122,1.948,1.308,2.193,1.526,0.579,1.072,0.987,�k��,2.6,��
2016/11/10,06:00,1.122,1.945,1.308,2.190,1.525,0.580,1.071,0.986,�k��,5.8,��
2016/11/10,06:10,1.122,1.945,1.306,2.190,1.527,0.580,1.070,0.987,�k��,5.0,��
2016/11/10,06:20,1.124,1.947,1.303,2.190,1.526,0.581,1.071,0.986,�k��,2.9,��
2016/11/10,06:30,1.123,1.947,1.303,2.193,1.527,0.581,1.071,0.988,�k�k��,4.9,��
2016/11/10,06:40,1.123,1.946,1.305,2.195,1.529,0.580,1.070,0.987,�k��,4.2,��
2016/11/10,06:50,1.121,1.947,1.305,2.190,1.529,0.580,1.070,0.985,�k��,5.8,��
2016/11/10,07:00,1.123,1.947,1.305,2.192,1.527,0.580,1.070,0.987,�k�k��,7.4,��
2016/11/10,07:10,1.123,1.946,1.305,2.194,1.525,0.581,1.073,0.987,�k�k��,5.7,��
2016/11/10,07:20,1.121,1.945,1.306,2.194,1.527,0.580,1.072,0.987,�k��,2.6,��
2016/11/10,07:30,1.123,1.945,1.305,2.190,1.528,0.579,1.071,0.988,�k��,3.4,��
2016/11/10,07:40,1.122,1.949,1.306,2.194,1.527,0.581,1.073,0.988,�k��,3.7,��
2016/11/10,07:50,1.123,1.949,1.307,2.194,1.526,0.581,1.071,0.989,�k��,5.5,��
2016/11/10,08:00,1.123,1.951,1.303,2.196,1.528,0.582,1.073,0.988,���k��,4.2,��
2016/11/10,08:10,1.124,1.950,1.307,2.197,1.530,0.580,1.070,0.988,�k��,4.7,��
2016/11/10,08:20,1.125,1.945,1.308,2.198,1.529,0.581,1.071,0.987,�k��,3.0,��
2016/11/10,08:30,1.125,1.949,1.309,2.195,1.530,0.582,1.073,0.986,�k��,2.6,��
2016/11/10,08:40,1.126,1.949,1.311,2.196,1.530,0.584,1.074,0.987,�k��,4.5,��
2016/11/10,08:50,1.125,1.950,1.310,2.199,1.531,0.584,1.073,0.987,�k��,5.4,��
2016/11/10,09:00,1.128,1.951,1.312,2.198,1.531,0.584,1.073,0.987,�k��,6.3,��
2016/11/10,09:10,1.125,1.948,1.310,2.198,1.530,0.585,1.072,0.987,���k��,3.6,��
2016/11/10,09:20,1.122,1.946,1.310,2.197,1.532,0.587,1.070,0.989,�k��,6.0,��
2016/11/10,09:30,1.122,1.951,1.311,2.199,1.534,0.583,1.071,0.988,���k��,4.4,��
2016/11/10,09:40,1.122,1.950,1.308,2.198,1.532,0.585,1.071,0.988,���k��,4.7,��
2016/11/10,09:50,1.126,1.949,1.309,2.198,1.533,0.580,1.072,0.988,���k��,4.8,��
2016/11/10,10:00,1.123,1.952,1.311,2.200,1.535,0.580,1.072,0.988,���k��,4.1,��
2016/11/10,10:10,1.126,1.952,1.312,2.200,1.537,0.581,1.070,0.991,�k��,4.0,��
2016/11/10,10:20,1.129,1.950,1.311,2.198,1.535,0.580,1.072,0.987,���k��,3.4,��
2016/11/10,10:30,1.128,1.946,1.310,2.198,1.534,0.580,1.071,0.989,���k��,2.3,��
2016/11/10,10:40,1.128,1.950,1.309,2.201,1.530,0.581,1.070,0.989,�k��,2.0,��
2016/11/10,10:50,1.126,1.945,1.310,2.198,1.536,0.587,1.071,0.988,���k��,1.7,��
2016/11/10,11:00,1.131,1.946,1.311,2.199,1.535,0.586,1.072,0.991,��,2.6,��
2016/11/10,11:10,1.127,1.947,1.308,2.200,1.535,0.589,1.071,0.991,�k��,3.0,��
2016/11/10,11:20,1.119,1.950,1.310,2.200,1.535,0.585,1.071,0.989,�k��,3.2,��
2016/11/10,11:30,1.121,1.950,1.308,2.201,1.536,0.587,1.071,0.989,�k��,2.5,��
2016/11/10,11:40,1.126,1.954,1.307,2.198,1.537,0.588,1.072,0.992,�k�k��,2.6,��
2016/11/10,11:50,1.128,1.951,1.311,2.204,1.534,0.586,1.071,0.989,���k��,1.4,��
2016/11/10,12:00,1.127,1.952,1.312,2.199,1.535,0.582,1.072,0.988,�k,1.7,��
2016/11/10,12:10,1.128,1.955,1.315,2.199,1.537,0.585,1.073,0.991,�k,2.0,��
2016/11/10,12:20,1.129,1.956,1.314,2.201,1.536,0.584,1.071,0.990,�k,2.8,��
2016/11/10,12:30,1.130,1.954,1.313,2.204,1.534,0.583,1.070,0.989,�k�k��,3.7,��
2016/11/10,12:40,1.131,1.953,1.313,2.202,1.535,0.584,1.072,0.991,�k��,2.5,��
2016/11/10,12:50,1.131,1.956,1.311,2.206,1.537,0.585,1.072,0.991,�k��,2.3,��
2016/11/10,13:00,1.130,1.955,1.313,2.204,1.537,0.583,1.072,0.990,�k�k��,2.5,��
2016/11/10,13:10,1.132,1.949,1.315,2.202,1.535,0.583,1.073,0.989,�k�k��,2.5,��
2016/11/10,13:20,1.130,1.951,1.313,2.205,1.537,0.583,1.072,0.988,�k,3.3,��
2016/11/10,13:30,1.131,1.956,1.314,2.202,1.533,0.584,1.073,0.991,�k�k��,2.6,��
2016/11/10,13:40,1.131,1.954,1.313,2.201,1.537,0.584,1.073,0.991,�k�k��,2.2,��
2016/11/10,13:50,1.130,1.952,1.313,2.203,1.535,0.583,1.072,0.987,�k�k��,1.4,��
2016/11/10,14:00,1.130,1.952,1.317,2.204,1.536,0.583,1.074,0.989,�k,2.6,��
2016/11/10,14:10,1.131,1.949,1.313,2.203,1.536,0.584,1.072,0.991,�k,1.5,��
2016/11/10,14:20,1.131,1.952,1.313,2.204,1.534,0.584,1.075,0.990,�k,1.7,��
2016/11/10,14:30,1.132,1.951,1.314,2.198,1.530,0.583,1.073,0.990,�k�k��,1.5,��
2016/11/10,14:40,1.131,1.954,1.311,2.199,1.534,0.581,1.072,0.990,�k�k��,2.0,��
2016/11/10,14:50,1.131,1.953,1.313,2.202,1.536,0.583,1.072,0.988,�k,2.3,��
2016/11/10,15:00,1.129,1.955,1.316,2.200,1.537,0.583,1.073,0.990,�k��,2.0,��
2016/11/10,15:10,1.130,1.953,1.315,2.201,1.537,0.583,1.074,0.990,�k��,1.5,��
2016/11/10,15:20,1.127,1.954,1.316,2.200,1.535,0.583,1.071,0.990,�k��,1.7,��
2016/11/10,15:30,1.130,1.955,1.314,2.201,1.539,0.582,1.073,0.989,�k��,1.7,��
2016/11/10,15:40,1.130,1.954,1.314,2.202,1.536,0.581,1.072,0.988,�k��,0.9,��
2016/11/10,15:50,1.130,1.957,1.316,2.197,1.537,0.583,1.076,0.990,���k��,0.9,��
2016/11/10,16:00,1.130,1.953,1.314,2.202,1.538,0.584,1.074,0.989,�k��,1.1,��
2016/11/10,16:10,1.131,1.956,1.315,2.204,1.537,0.583,1.075,0.989,���k��,1.5,��
2016/11/10,16:20,1.129,1.952,1.314,2.201,1.535,0.581,1.075,0.988,��,1.5,��
2016/11/10,16:30,1.128,1.954,1.313,2.198,1.535,0.581,1.075,0.986,���k��,1.2,��
2016/11/10,16:40,1.130,1.954,1.315,2.199,1.537,0.582,1.074,0.988,���쓌,1.2,��
2016/11/10,16:50,1.129,1.951,1.315,2.203,1.537,0.584,1.074,0.990,��쓌,0.6,��
2016/11/10,17:00,1.127,1.953,1.314,2.200,1.533,0.583,1.075,0.990,��쓌,0.8,��
2016/11/10,17:10,1.127,1.955,1.313,2.199,1.537,0.582,1.073,0.988,��쓌,1.9,��
2016/11/10,17:20,1.129,1.951,1.314,2.200,1.536,0.586,1.075,0.986,��쐼,0.9,��
2016/11/10,17:30,1.127,1.955,1.315,2.199,1.534,0.585,1.074,0.987,��쐼,0.8,��
2016/11/10,17:40,1.130,1.955,1.314,2.195,1.537,0.586,1.073,0.987,��쐼,1.5,��
2016/11/10,17:50,1.126,1.950,1.314,2.200,1.535,0.585,1.075,0.986,��쐼,1.1,��
2016/11/10,18:00,1.127,1.951,1.312,2.197,1.534,0.585,1.073,0.988,�쐼,1.5,��
2016/11/10,18:10,1.126,1.948,1.313,2.197,1.534,0.584,1.075,0.987,���쐼,2.0,��
2016/11/10,18:20,1.125,1.953,1.312,2.197,1.535,0.585,1.074,0.988,�쐼,2.3,��
2016/11/10,18:30,1.123,1.951,1.311,2.198,1.535,0.583,1.073,0.987,�쐼,2.0,��
2016/11/10,18:40,1.124,1.953,1.313,2.195,1.533,0.584,1.072,0.987,���쐼,1.5,��
2016/11/10,18:50,1.126,1.949,1.309,2.197,1.536,0.585,1.074,0.989,�쐼,1.5,��
2016/11/10,19:00,1.127,1.953,1.314,2.197,1.536,0.583,1.074,0.987,�쐼,1.7,��
2016/11/10,19:10,1.126,1.950,1.309,2.197,1.533,0.584,1.072,0.986,�쐼,1.4,��
2016/11/10,19:20,1.127,1.950,1.313,2.196,1.532,0.586,1.071,0.987,��쐼,2.0,��
2016/11/10,19:30,1.126,1.951,1.311,2.195,1.532,0.583,1.074,0.989,��쐼,1.7,��
2016/11/10,19:40,1.126,1.951,1.310,2.198,1.535,0.585,1.074,0.986,��쐼,2.0,��
2016/11/10,19:50,1.128,1.950,1.311,2.196,1.533,0.584,1.072,0.987,�쐼,2.3,��
2016/11/10,20:00,1.126,1.948,1.311,2.197,1.533,0.584,1.073,0.987,��쐼,2.0,��
2016/11/10,20:10,1.125,1.950,1.310,2.197,1.531,0.583,1.074,0.986,�쐼,2.0,��
2016/11/10,20:20,1.124,1.950,1.310,2.196,1.534,0.584,1.069,0.984,�쐼,1.4,��
2016/11/10,20:30,1.125,1.949,1.311,2.195,1.535,0.583,1.072,0.986,�쐼,1.5,��
2016/11/10,20:40,1.126,1.952,1.309,2.196,1.534,0.582,1.072,0.987,��쐼,1.4,��
2016/11/10,20:50,1.125,1.950,1.312,2.197,1.536,0.582,1.071,0.985,�쐼,1.7,��
2016/11/10,21:00,1.124,1.952,1.313,2.196,1.534,0.582,1.072,0.988,�쐼,1.5,��
2016/11/10,21:10,1.124,1.952,1.311,2.195,1.531,0.580,1.071,0.988,�쐼,1.7,��
2016/11/10,21:20,1.127,1.951,1.312,2.195,1.538,0.581,1.073,0.989,�쐼,1.7,��
2016/11/10,21:30,1.125,1.952,1.310,2.196,1.532,0.582,1.072,0.989,�쐼,1.5,��
2016/11/10,21:40,1.125,1.952,1.311,2.199,1.532,0.580,1.070,0.989,�쐼,1.2,��
2016/11/10,21:50,1.126,1.953,1.309,2.197,1.535,0.581,1.073,0.986,�쐼,1.2,��
2016/11/10,22:00,1.124,1.953,1.311,2.197,1.537,0.582,1.074,0.989,�쐼,1.2,��
2016/11/10,22:10,1.127,1.948,1.312,2.198,1.534,0.583,1.074,0.989,��쐼,1.5,��
2016/11/10,22:20,1.126,1.950,1.312,2.198,1.532,0.582,1.073,0.987,�쐼,1.7,��
2016/11/10,22:30,1.129,1.952,1.312,2.196,1.534,0.582,1.074,0.986,�쐼,1.5,��
2016/11/10,22:40,1.125,1.951,1.314,2.199,1.534,0.582,1.075,0.988,�쐼,1.2,��
2016/11/10,22:50,1.128,1.950,1.312,2.196,1.533,0.583,1.074,0.986,�쐼,1.2,��
2016/11/10,23:00,1.127,1.951,1.311,2.196,1.536,0.582,1.074,0.989,�쐼,0.9,��
2016/11/10,23:10,1.127,1.952,1.312,2.197,1.534,0.582,1.074,0.988,�쐼,0.6,��
2016/11/10,23:20,1.128,1.951,1.311,2.197,1.533,0.582,1.074,0.988,��쐼,0.6,��
2016/11/10,23:30,1.127,1.950,1.312,2.197,1.534,0.582,1.070,0.986,��쐼,0.8,��
2016/11/10,23:40,1.127,1.951,1.310,2.196,1.535,0.582,1.074,0.988,-,CALM,��
2016/11/10,23:50,1.127,1.953,1.314,2.198,1.534,0.583,1.074,0.986,-,CALM,��
